SCP
0 0 0 0 0 0 0 0 0 0 0 1 1 1 1 1 1 1 1 1 2 2 3 3 3 3 3 3 3 3 2 2 2 2 1 1 1 2 2 2 2 1 1 1 1 1 1 1 1
0 0 0 0 0 0 0 0 0 0 1 1 1 1 1 1 1 1 1 2 2 2 2 3 3 3 3 2 2 2 2 2 2 1 1 1 1 2 2 2 2 2 1 1 1 1 1 1 1
0 0 0 0 0 0 0 0 1 1 1 1 1 1 1 1 1 1 1 2 2 2 2 2 3 3 2 2 2 2 2 1 1 1 1 1 1 1 2 2 2 2 1 1 1 1 1 1 1
0 0 0 0 0 0 0 1 1 1 1 1 1 1 1 1 1 1 1 1 1 2 2 2 2 2 2 2 2 1 1 1 2 2 2 1 1 2 2 2 2 2 2 1 1 1 1 1 1
0 0 0 0 0 0 1 1 1 1 1 1 2 2 2 2 1 2 1 1 1 1 2 2 2 2 2 2 2 2 2 2 2 2 2 2 2 2 2 2 2 2 2 1 1 1 1 1 1
0 0 0 0 0 1 1 1 1 1 1 1 1 2 2 2 2 2 2 1 1 1 2 2 2 2 2 2 2 2 2 2 2 2 2 2 2 2 2 2 2 2 2 2 2 1 1 1 1
0 0 0 0 0 1 1 1 1 1 1 1 1 1 1 2 2 3 3 2 1 1 2 2 2 2 2 2 2 3 2 3 3 2 2 2 2 2 1 2 2 2 2 2 2 2 1 1 1
0 0 0 0 0 1 1 1 1 1 1 1 1 1 1 2 2 3 3 3 2 2 2 1 1 1 2 2 2 2 2 2 2 2 2 2 1 1 1 1 1 2 2 2 2 2 2 1 1
0 0 0 0 0 1 1 1 1 1 1 1 1 1 1 2 3 4 4 4 3 3 2 1 1 1 2 2 2 1 2 2 2 2 2 2 2 1 1 1 1 1 1 1 1 1 1 1 1
0 0 0 0 1 1 1 1 1 1 1 1 1 1 2 2 3 4 4 4 4 3 3 2 2 1 2 2 2 2 2 2 2 2 2 3 2 1 1 1 1 1 1 1 1 1 1 1 1
0 0 0 1 1 1 1 1 1 1 1 1 1 1 2 2 3 3 4 4 5 4 3 3 2 2 2 2 3 3 3 3 3 3 4 3 2 2 2 2 2 1 1 1 1 1 1 1 1
0 0 1 1 1 2 1 1 1 1 1 1 1 1 2 2 3 3 3 4 5 5 4 4 3 3 3 3 4 4 5 5 5 5 6 5 3 3 3 3 3 3 2 2 2 2 1 1 1
0 1 1 1 1 1 1 1 1 1 1 1 1 1 2 2 2 3 3 4 5 5 5 5 4 4 4 4 5 5 6 6 7 7 7 6 5 4 3 4 4 4 3 3 2 2 2 2 2
1 1 2 1 1 1 1 1 1 1 1 2 1 1 2 2 2 2 3 4 5 4 5 5 5 4 4 4 5 5 5 6 7 7 7 7 7 5 4 4 4 4 4 3 3 2 2 2 2
1 2 2 1 1 1 1 1 1 1 1 1 1 1 2 2 2 2 3 4 5 4 5 5 5 4 4 4 4 5 5 5 6 6 6 7 7 6 5 5 4 4 5 4 3 3 3 2 2
1 1 1 1 1 1 0 0 1 1 1 1 1 1 1 2 2 2 3 3 4 4 5 5 5 5 4 4 4 5 5 5 5 5 5 5 5 6 6 5 5 5 5 5 4 4 3 3 2
0 1 1 1 1 1 0 0 1 1 1 1 1 1 1 2 2 2 2 2 3 5 5 5 5 5 5 5 5 5 5 5 5 5 4 4 4 5 5 5 4 4 5 5 5 4 4 3 3
0 0 1 1 1 0 0 1 1 1 1 1 1 1 2 2 2 2 3 2 3 4 5 4 4 5 5 5 5 5 4 4 4 4 4 4 4 4 4 3 3 4 4 4 4 4 4 3 3
0 0 1 1 0 0 1 1 1 1 1 1 2 2 2 2 3 3 3 3 3 3 4 4 4 5 5 6 6 6 4 4 4 4 4 4 3 3 3 2 2 3 3 3 4 4 4 3 3
0 0 0 0 0 0 1 1 1 1 1 1 1 2 2 3 3 4 4 4 4 3 4 4 5 5 5 6 7 6 5 3 3 3 3 3 3 2 2 2 2 3 3 3 3 4 4 3 3
0 0 0 0 1 1 1 1 1 1 1 1 1 1 2 2 3 4 4 4 4 4 4 4 5 5 5 5 6 6 5 3 3 2 2 2 2 2 2 2 2 3 3 4 4 4 4 3 3
0 0 0 0 1 1 0 1 1 1 1 1 1 2 2 2 3 4 4 4 4 4 4 4 5 5 5 5 5 5 4 3 3 3 2 2 2 2 2 2 2 3 3 4 4 4 4 3 2
0 0 0 0 0 0 0 0 1 1 1 1 2 2 3 4 4 5 5 4 4 4 4 4 6 7 7 6 5 5 4 3 3 3 2 2 2 2 1 2 2 2 3 4 5 5 4 3 2
0 0 0 0 0 0 0 1 1 1 1 2 2 2 3 4 5 6 6 6 5 5 5 5 6 8 8 7 6 5 4 3 3 3 3 2 1 1 1 1 1 2 2 4 4 4 4 3 3
0 0 0 0 0 0 0 1 1 1 1 1 2 2 3 3 4 5 5 6 5 5 5 5 6 7 7 7 6 6 4 3 3 3 3 2 1 1 1 1 1 1 2 3 4 4 4 3 3
0 0 0 0 0 0 0 1 1 1 1 1 2 2 2 2 2 3 3 4 4 4 5 5 5 5 5 5 5 5 4 3 3 3 3 2 1 1 0 0 0 1 1 3 4 5 4 4 3
0 0 0 0 0 0 0 1 1 1 1 1 2 2 2 2 1 1 1 2 2 3 4 4 4 4 4 4 4 4 4 3 3 3 2 1 1 1 0 0 0 0 1 2 4 5 5 4 3
0 0 0 0 0 0 0 1 1 1 1 1 1 1 1 2 1 1 1 1 1 2 3 4 4 3 3 3 3 3 3 2 2 2 1 1 0 0 0 0 0 0 1 2 3 4 4 4 3
0 0 0 0 0 0 0 0 1 1 1 1 1 1 1 2 2 2 1 1 1 2 3 4 4 3 3 2 2 3 3 2 2 1 1 1 0 0 0 0 0 0 1 2 3 4 4 3 3
0 0 0 1 1 1 0 0 1 1 1 1 1 1 2 2 2 2 1 1 1 2 3 4 4 3 3 3 2 3 3 2 2 1 1 1 0 0 0 0 0 0 1 1 2 3 3 3 3
Wind_Speed
9 9 6 6 8 5 2 4 2 3 3 3 2 1 3 4 4 5 6 7 7 9 10 12 9 8 9 9 9 9 9 9 9 8 8 8 8 8 7 7 7 7 7 7 7 7 7 7 7
7 7 7 7 7 3 4 3 2 3 4 3 2 1 2 4 5 5 6 7 8 9 10 10 11 8 9 10 9 9 9 9 9 8 8 7 7 7 7 7 6 6 6 6 6 6 6 7 7
7 7 7 6 3 1 3 4 3 3 3 2 2 2 2 3 4 4 6 9 9 9 10 11 10 9 9 9 9 9 9 9 9 8 7 7 6 6 6 6 6 6 5 5 6 6 6 6 6
6 7 7 6 2 1 2 2 2 4 3 2 2 4 4 3 2 5 9 9 9 9 9 12 10 9 8 8 8 8 8 8 8 8 7 6 6 5 6 6 6 5 5 4 5 5 5 6 6
7 6 7 5 3 2 1 1 2 2 3 3 3 3 4 4 5 8 9 8 8 8 8 11 10 8 8 8 8 8 8 7 7 7 7 6 5 5 5 5 5 4 4 4 4 5 5 5 6
6 6 7 5 3 3 2 1 2 2 3 4 3 3 4 6 7 8 8 7 8 8 9 10 11 9 8 7 7 7 7 6 6 6 6 6 5 5 5 5 5 4 4 4 4 5 5 5 5
7 6 6 4 3 3 2 2 3 2 2 3 2 2 5 7 7 8 8 7 8 9 9 8 9 9 9 8 7 6 6 6 6 6 6 5 5 5 5 5 4 4 4 4 4 5 5 5 5
6 6 7 5 4 2 3 2 1 2 1 2 2 2 5 9 9 9 8 8 8 8 8 7 7 7 7 8 8 6 6 6 6 6 6 5 5 6 5 6 4 3 3 3 4 4 4 4 4
6 8 6 4 3 2 3 2 1 1 2 3 2 2 6 12 11 10 9 8 7 7 6 6 6 6 5 6 7 7 7 6 6 6 6 6 5 5 5 4 4 4 4 3 4 4 4 4 5
7 8 5 1 2 0 1 1 1 4 5 5 5 6 10 13 12 11 10 9 8 8 7 6 5 5 5 4 5 4 4 4 3 3 4 3 2 2 2 6 5 5 5 5 5 4 6 7 5
7 7 3 2 2 2 3 2 3 5 5 4 6 8 11 12 12 10 9 8 8 8 6 6 5 4 4 3 3 2 2 2 2 2 2 2 2 2 2 3 5 5 7 5 6 7 4 3 2
7 6 6 5 3 5 5 4 4 5 3 1 4 9 12 12 11 10 9 8 8 7 7 6 6 5 4 3 3 2 2 2 1 2 2 2 1 1 1 1 2 3 2 3 3 3 3 3 3
9 7 5 6 6 6 6 7 6 5 3 4 6 9 11 11 10 9 8 8 7 7 7 6 6 5 4 3 2 2 2 2 2 1 1 2 2 1 1 1 1 2 2 3 3 3 3 3 4
5 6 7 7 6 6 7 7 6 5 4 6 8 9 10 10 10 9 9 8 7 7 6 5 6 6 5 4 3 2 2 2 2 2 1 1 1 1 1 2 2 2 1 1 2 2 3 3 2
6 8 9 8 8 6 6 8 7 5 6 7 8 9 9 9 10 10 9 8 7 6 6 5 6 5 5 4 4 3 2 3 2 2 2 2 1 1 2 2 2 1 1 2 3 3 3 3 3
10 10 9 7 6 6 9 8 5 6 7 8 8 8 9 9 9 8 8 7 6 6 6 5 4 5 5 3 3 2 2 2 2 2 2 2 2 2 2 2 1 1 2 2 2 3 3 3 3
11 10 7 5 6 6 9 6 4 6 7 8 8 9 9 9 9 8 8 8 7 7 6 6 5 4 4 4 3 3 2 2 2 2 2 2 3 3 3 2 1 2 2 2 2 2 3 3 3
7 8 7 6 5 7 9 7 5 7 8 8 8 9 9 9 9 9 8 7 7 6 6 5 5 4 4 4 3 3 3 3 2 2 2 2 2 3 3 2 3 3 2 2 2 2 2 2 3
9 9 9 5 3 7 8 8 7 8 9 9 9 9 9 9 9 9 8 7 7 6 6 5 5 5 4 3 4 3 3 3 3 3 3 3 3 3 3 2 3 3 2 3 3 3 3 3 2
11 11 9 6 4 6 7 8 7 8 10 9 9 9 9 9 10 9 9 8 8 7 7 6 6 5 5 3 3 3 3 3 2 2 2 3 3 3 3 3 3 3 3 3 3 3 3 2 3
12 11 9 6 4 7 8 10 9 9 9 8 9 9 9 10 10 10 9 9 8 8 7 5 5 5 5 4 4 3 2 3 3 3 3 3 4 4 3 3 3 3 3 3 3 4 5 3 3
10 8 9 8 9 7 7 8 6 8 8 8 9 9 10 10 10 10 10 9 8 7 7 6 6 5 5 5 5 4 3 3 3 3 3 3 4 5 4 4 4 4 3 3 4 3 4 5 3
8 5 8 9 10 10 9 10 5 6 8 8 9 9 9 10 10 10 10 9 8 7 7 6 5 5 5 5 5 5 4 3 3 3 3 4 4 5 5 5 4 4 4 3 4 3 4 4 4
7 6 7 9 10 11 8 9 6 4 5 5 7 9 9 9 9 9 8 8 7 7 6 6 6 5 5 5 4 4 4 4 3 4 4 4 4 4 5 5 5 5 4 4 5 4 5 4 4
10 9 7 9 9 7 4 8 5 1 2 4 5 7 8 9 9 9 9 9 8 7 7 6 6 5 5 5 4 4 4 5 5 4 4 4 4 4 5 5 4 4 4 5 5 5 4 5 5
11 12 9 7 7 4 5 7 2 1 1 3 4 6 8 8 8 9 9 8 8 8 7 6 6 5 5 4 4 4 4 4 3 3 4 4 3 3 3 5 5 5 5 5 5 5 5 5 5
12 11 9 11 11 9 6 5 4 4 4 5 6 7 8 8 8 8 8 8 7 7 7 6 5 4 4 4 4 4 4 4 3 4 4 3 3 3 4 5 5 5 5 5 5 5 5 4 5
10 8 8 10 8 8 6 7 3 4 5 6 7 8 8 8 8 7 7 7 7 6 6 6 5 4 4 4 4 3 3 3 3 3 3 3 3 3 4 5 5 5 5 5 6 5 5 5 5
10 11 9 9 8 8 6 2 2 1 3 6 7 8 8 8 8 7 7 6 7 6 6 6 6 5 4 4 3 3 3 3 3 3 3 3 4 4 5 5 5 5 5 5 5 5 5 6 5
10 10 10 9 8 8 8 2 5 1 1 3 6 7 7 8 8 8 7 6 6 6 6 6 5 5 4 4 4 4 3 3 3 3 3 4 4 4 5 5 5 5 5 4 5 5 5 5 5
Wind_Direction
194 198 215 231 234 219 112 96 71 103 97 70 67 37 28 17 5 55 89 124 130 134 133 141 135 137 140 140 139 140 138 135 132 132 133 135 137 136 135 136 135 138 142 143 143 143 146 146 146
192 199 224 238 252 205 116 98 103 77 80 105 120 114 78 66 48 87 122 131 141 134 135 133 130 134 136 138 139 139 138 135 134 133 133 135 136 137 137 135 135 136 135 139 144 144 146 146 145
194 227 250 245 251 289 92 92 91 106 127 178 144 86 42 68 88 109 123 142 145 138 134 123 132 129 128 132 136 137 137 136 135 133 132 133 133 132 134 136 140 139 139 143 147 150 154 152 148
212 221 234 245 219 53 29 65 106 142 145 164 157 117 96 62 92 122 134 147 144 139 133 127 134 129 131 138 139 139 139 139 137 136 134 134 136 136 137 139 142 142 143 148 156 155 160 161 155
235 247 233 221 197 126 77 5 206 181 150 147 171 123 109 98 107 125 140 145 142 137 132 130 134 132 130 132 134 137 139 141 141 140 142 143 143 142 144 146 148 152 155 158 160 156 159 164 163
230 240 239 222 171 161 150 163 205 176 141 142 165 149 107 117 132 137 140 145 143 139 133 130 137 137 136 132 134 136 138 140 143 143 147 150 153 156 157 156 161 167 169 167 165 163 161 165 167
257 251 251 238 190 176 133 172 210 194 161 145 170 149 124 133 133 139 138 139 132 132 131 136 145 145 145 141 135 134 136 134 134 136 140 148 155 160 164 163 162 170 180 180 175 173 170 171 173
267 257 232 221 211 162 122 168 206 256 146 118 200 187 135 137 141 141 139 137 132 132 134 140 144 143 153 147 136 133 129 126 129 133 141 150 164 168 172 174 158 167 176 188 183 177 178 175 180
245 245 229 215 214 144 135 188 138 224 169 160 168 50 102 134 145 147 144 143 140 137 138 142 143 143 149 143 134 147 147 145 161 155 152 183 191 177 178 150 148 179 188 189 185 183 186 184 178
234 242 233 269 298 119 170 242 211 193 186 170 148 117 127 145 154 157 157 156 154 151 150 148 144 148 147 136 139 156 160 147 175 150 166 185 172 188 176 137 169 188 191 190 190 195 202 218 194
236 253 255 254 257 257 251 250 224 227 215 193 171 153 152 158 163 167 168 164 162 159 155 153 149 152 147 139 141 141 144 139 158 147 173 185 191 186 188 172 179 190 197 196 182 202 209 215 210
239 252 262 261 255 252 255 251 245 251 251 173 161 158 162 168 170 172 170 165 164 163 162 161 158 155 154 135 136 148 142 145 148 148 198 185 193 199 185 206 197 199 197 199 203 202 192 209 208
231 243 247 250 249 254 254 248 250 252 219 168 154 162 170 174 174 171 168 165 165 166 167 166 165 156 151 146 161 146 158 161 152 167 175 217 198 198 191 208 229 226 208 201 205 207 192 211 211
245 249 249 245 240 231 230 236 229 228 184 166 167 172 178 176 173 169 170 170 171 172 170 169 172 162 161 162 170 171 173 172 179 174 165 227 230 193 215 205 217 225 226 235 230 210 211 228 224
242 246 237 226 225 218 222 229 221 199 180 180 182 181 182 177 173 174 175 175 171 168 166 171 174 169 173 178 187 188 185 187 185 176 183 208 229 212 220 215 210 202 203 208 226 218 224 221 218
227 234 232 198 205 207 231 237 184 177 187 195 190 185 183 180 180 176 174 174 168 167 166 173 178 173 179 187 202 204 205 200 196 191 191 206 220 225 232 222 205 198 206 211 214 230 227 226 233
218 232 238 201 191 210 233 253 193 187 202 207 197 190 186 182 184 178 176 176 171 170 172 174 178 180 185 190 202 207 196 210 213 208 203 205 218 222 235 224 188 216 210 215 230 212 241 223 232
237 245 239 236 186 223 240 252 222 203 212 215 206 199 192 189 185 177 177 178 176 172 177 178 182 184 194 192 193 203 205 210 213 211 205 212 216 216 230 210 194 212 202 213 217 215 234 249 239
259 259 254 246 218 244 248 250 234 212 214 217 213 207 202 193 181 176 176 178 176 176 180 183 187 183 193 194 203 206 208 215 214 214 200 204 213 211 226 228 200 214 197 217 213 214 202 220 226
244 248 246 227 209 253 260 259 239 220 221 220 218 212 207 192 181 178 178 180 183 182 184 188 189 187 198 195 209 215 219 223 221 230 209 211 211 214 217 222 223 207 200 203 210 216 229 219 212
241 246 252 254 246 238 256 250 225 215 219 219 220 217 208 198 189 182 183 188 188 187 189 189 192 192 199 201 205 200 201 214 208 215 208 210 214 220 230 218 226 217 220 200 216 210 221 227 219
245 238 248 245 250 245 239 267 225 210 207 212 216 214 206 198 194 190 188 189 193 191 186 191 194 196 199 202 204 204 212 225 225 222 212 208 213 217 215 215 213 221 225 203 221 203 223 233 232
248 251 247 247 252 259 238 257 240 200 221 216 213 212 204 196 193 192 191 187 189 187 184 185 189 196 199 204 202 213 226 234 223 215 207 216 207 214 215 212 212 217 223 218 231 214 229 233 246
227 224 230 236 241 244 240 255 255 212 238 219 205 205 197 193 190 188 184 181 183 183 182 181 184 192 195 203 207 215 228 235 232 223 215 217 207 210 209 215 216 217 220 216 224 227 227 245 252
215 228 229 222 222 236 200 245 264 236 236 228 212 200 188 190 188 183 180 179 179 182 185 183 183 189 190 196 210 217 227 226 226 229 221 225 216 210 203 217 219 224 223 224 226 226 237 236 239
220 234 249 259 257 251 201 241 240 119 193 214 209 196 182 185 185 184 182 180 179 179 181 183 185 186 188 191 208 222 230 232 225 230 235 230 230 221 202 216 221 225 228 230 226 231 228 230 236
223 227 253 267 268 267 239 229 197 174 193 190 181 179 177 179 178 179 176 177 176 176 178 181 182 185 189 190 204 218 223 235 236 225 232 226 221 213 207 214 222 226 227 231 233 236 229 227 233
248 236 231 245 257 262 249 240 236 177 190 179 175 178 175 174 174 173 171 173 173 173 172 173 175 182 188 193 203 206 214 217 227 231 230 233 224 218 212 214 219 225 227 229 235 237 226 228 229
211 219 235 247 255 267 270 268 62 207 196 189 183 177 172 174 171 167 166 171 173 175 174 172 174 180 185 195 202 212 215 218 224 227 226 225 224 216 216 218 221 225 226 225 227 236 230 230 232
228 229 229 243 244 252 272 282 81 94 165 190 182 172 169 171 167 164 165 169 176 177 173 173 181 186 186 193 202 206 215 220 227 227 226 220 220 220 216 216 219 225 221 219 224 232 233 231 233